Location: Melbourne
(37.8170°S, 144.9670°E)
Time: 17:13:53
(UTC+10:00)

deb Explorer IX - All Passes

Search period start: 23 May 2018 00:00
Search period end: 02 June 2018 00:00
Orbit: 551 x 1109 km, 38.8° (Epoch: 22 May)

Date Brightness Start Highest point End Pass type
(mag) Time Alt. Az. Time Alt. Az. Time Alt. Az.
23 May - 00:09:38 10° W 00:16:03 36° NNW 00:22:38 10° NNE night (unlit)
23 May - 16:42:11 10° NNW 16:46:19 25° NE 16:51:01 10° E daylight
23 May - 18:27:28 10° WNW 18:32:57 72° NNE 18:39:26 10° ESE visible
23 May - 20:14:21 10° W 20:20:27 82° S 20:27:30 10° E visible
23 May - 22:01:32 10° WSW 22:08:08 76° NNW 22:15:27 10° ENE visible
23 May - 23:49:09 10° W 23:55:24 35° NNW 00:01:56 10° NNE night (unlit)
24 May - 16:21:47 10° NNW 16:25:49 25° NE 16:30:25 10° E daylight
24 May - 18:07:07 10° WNW 18:12:27 73° NNE 18:18:47 10° ESE visible
24 May - 19:53:59 10° W 19:59:55 82° S 20:06:49 10° E visible
24 May - 21:41:06 10° WSW 21:47:33 75° NNW 21:54:46 10° ENE visible
24 May - 23:28:41 10° W 23:34:47 34° NNW 23:41:13 10° NNE night (unlit)
25 May - 16:01:24 10° NNW 16:05:21 25° NE 16:09:48 10° E daylight
25 May - 17:46:46 10° WNW 17:51:57 74° NNE 17:58:07 10° E visible
25 May - 19:33:36 10° W 19:39:23 81° S 19:46:09 10° E visible
25 May - 21:20:40 10° W 21:26:57 73° NNW 21:34:05 10° ENE visible
25 May - 23:08:15 10° W 23:14:09 32° NNW 23:20:29 10° NNE night (unlit)
26 May - 15:41:00 10° NNW 15:44:52 25° NE 15:49:13 10° E daylight
26 May - 17:26:25 10° WNW 17:31:28 75° NNE 17:37:28 10° E daylight
26 May - 19:13:14 10° W 19:18:51 81° S 19:25:29 10° E visible
26 May - 21:00:15 10° W 21:06:23 72° NNW 21:13:24 10° ENE visible
26 May - 22:47:49 10° W 22:53:33 31° NNW 22:59:42 10° NNE night (unlit)
27 May - 15:20:37 10° NNW 15:24:24 26° NE 15:28:39 10° E daylight
27 May - 17:06:05 10° WNW 17:11:00 77° NNE 17:16:49 10° E daylight
27 May - 18:52:53 10° W 18:58:21 81° S 19:04:48 10° E visible
27 May - 20:39:50 10° W 20:45:48 70° NNW 20:52:41 10° ENE visible
27 May - 22:27:25 10° W 22:32:56 29° NNW 22:38:55 10° NNE night (unlit)
28 May - 15:00:13 10° NNW 15:03:56 26° NNE 15:08:06 10° E daylight
28 May - 16:45:45 10° WNW 16:50:32 78° NNE 16:56:11 10° E daylight
28 May - 18:32:32 10° W 18:37:50 81° S 18:44:07 10° E visible
28 May - 20:19:26 10° W 20:25:15 68° NNW 20:31:59 10° ENE visible
28 May - 22:07:01 10° W 22:12:20 28° NNW 22:18:07 10° NNE night (unlit)
29 May - 14:39:48 10° NNW 14:43:29 26° NNE 14:47:33 10° E daylight
29 May - 16:25:24 10° WNW 16:30:04 79° NNE 16:35:34 10° E daylight
29 May - 18:12:11 10° W 18:17:21 81° S 18:23:28 10° E visible
29 May - 19:59:04 10° W 20:04:41 66° NNW 20:11:16 10° ENE visible
29 May - 21:46:38 10° W 21:51:43 26° NNW 21:57:18 10° NNE visible
30 May - 14:19:23 10° NNW 14:23:02 27° NNE 14:27:01 10° E daylight
30 May - 16:05:04 10° WNW 16:09:37 80° NNE 16:14:57 10° E daylight
30 May - 17:51:50 10° W 17:56:51 81° S 18:02:48 10° E visible
30 May - 19:38:41 10° W 19:44:08 63° NNW 19:50:33 10° ENE visible
30 May - 21:26:17 10° W 21:31:08 25° NNW 21:36:28 10° NNE visible
31 May - 13:58:59 10° NNW 14:02:35 27° NNE 14:06:30 10° E daylight
31 May - 15:44:43 10° WNW 15:49:11 82° NNE 15:54:20 10° E daylight
31 May - 17:31:30 10° W 17:36:23 81° S 17:42:08 10° E visible
31 May - 19:18:18 10° W 19:23:37 61° NNW 19:29:49 10° ENE visible
31 May - 21:05:58 10° W 21:10:33 23° NNW 21:15:36 10° NNE visible
01 Jun - 13:38:32 10° NNW 13:42:08 28° NNE 13:46:00 10° E daylight
01 Jun - 15:24:22 10° WNW 15:28:45 83° NNE 15:33:45 10° E daylight
01 Jun - 17:11:08 10° W 17:15:54 81° S 17:21:30 10° E daylight
01 Jun - 18:57:57 10° W 19:03:05 59° NNW 19:09:06 10° ENE visible
01 Jun - 20:45:40 10° W 20:49:58 22° NNW 20:54:43 10° NNE visible
